| time (UTC) | temp C | wind direction | speed KPH | gust KPH | rain 1hr cm | rain 24hr cm | rain mn cm | humidity % | barometer mb |
| 20260507070214 | 9 | 283 | 1.6 | 4.8 | 0.00 | 0.46 | 0.00 | 59 | 1007.0 |
| 20260507070131 | 8 | 275 | 0.0 | 4.8 | 0.00 | 0.46 | 0.00 | 59 | 1006.9 |
| 20260507065709 | 9 | 288 | 1.6 | 9.7 | 0.00 | 0.46 | 0.00 | 59 | 1007.2 |
| 20260507065206 | 9 | 267 | 0.0 | 9.7 | 0.00 | 0.46 | 0.00 | 59 | 1006.9 |
| 20260507064703 | 9 | 297 | 1.6 | 8.0 | 0.00 | 0.46 | 0.00 | 60 | 1007.1 |
| 20260507064620 | 8 | 19 | 1.6 | 8.0 | 0.00 | 0.46 | 0.00 | 60 | 1007.0 |
| 20260507064159 | 9 | 276 | 1.6 | 8.0 | 0.00 | 0.46 | 0.00 | 60 | 1007.1 |
| 20260507063700 | 9 | 278 | 1.6 | 4.8 | 0.00 | 0.46 | 0.00 | 60 | 1007.0 |
| 20260507063201 | 9 | 253 | 3.2 | 6.4 | 0.00 | 0.46 | 0.00 | 60 | 1006.8 |
| 20260507062700 | 9 | 286 | 1.6 | 8.0 | 0.00 | 0.46 | 0.00 | 60 | 1007.1 |
| 20260507062159 | 10 | 207 | 3.2 | 8.0 | 0.00 | 0.46 | 0.00 | 60 | 1007.2 |
| 20260507061701 | 10 | 276 | 0.0 | 8.0 | 0.00 | 0.46 | 0.00 | 60 | 1006.8 |
| 20260507061158 | 10 | 293 | 3.2 | 8.0 | 0.00 | 0.46 | 0.00 | 60 | 1006.7 |
| 20260507060700 | 10 | 306 | 1.6 | 8.0 | 0.00 | 0.46 | 0.00 | 60 | 1006.9 |
| 20260507060152 | 10 | 358 | 1.6 | 8.0 | 0.00 | 0.46 | 0.00 | 61 | 1007.0 |
| 20260507055651 | 10 | 320 | 1.6 | 6.4 | 0.00 | 0.46 | 0.00 | 61 | 1007.0 |
| 20260507055211 | 10 | 283 | 0.0 | 3.2 | 0.00 | 0.46 | 0.00 | 61 | 1007.1 |
| 20260507054709 | 10 | 318 | 0.0 | 3.2 | 0.00 | 0.46 | 0.00 | 60 | 1007.1 |
| 20260507054627 | 9 | 318 | 0.0 | 3.2 | 0.00 | 0.46 | 0.00 | 60 | 1007.0 |
| 20260507054227 | 10 | 255 | 0.0 | 6.4 | 0.00 | 0.46 | 0.00 | 60 | 1007.4 |
| 20260507053726 | 10 | 277 | 1.6 | 9.7 | 0.00 | 0.46 | 0.00 | 60 | 1007.6 |
| 20260507053224 | 10 | 266 | 3.2 | 9.7 | 0.00 | 0.46 | 0.00 | 60 | 1007.4 |
| 20260507052702 | 10 | 326 | 0.0 | 6.4 | 0.00 | 0.46 | 0.00 | 60 | 1007.5 |
| 20260507052159 | 10 | 210 | 1.6 | 11.3 | 0.00 | 0.46 | 0.00 | 60 | 1007.5 |
| 20260507051712 | 10 | 270 | 4.8 | 11.3 | 0.00 | 0.46 | 0.00 | 60 | 1007.5 |
| 20260507051211 | 10 | 317 | 1.6 | 8.0 | 0.00 | 0.46 | 0.00 | 60 | 1007.7 |
| 20260507050708 | 10 | 259 | 4.8 | 8.0 | 0.00 | 0.46 | 0.00 | 60 | 1007.6 |
| 20260507050204 | 10 | 233 | 0.0 | 1.6 | 0.00 | 0.46 | 0.00 | 61 | 1007.6 |
| 20260507050117 | 10 | 233 | 0.0 | 0.0 | 0.00 | 0.00 | 0.00 | 61 | 1007.2 |
| 20260507045703 | 10 | 130 | 0.0 | 1.6 | 0.00 | 0.46 | 0.00 | 61 | 1007.4 |
| 20260507045202 | 10 | 151 | 0.0 | 1.6 | 0.00 | 0.46 | 0.00 | 60 | 1007.6 |
| 20260507044703 | 10 | 214 | 0.0 | 6.4 | 0.00 | 0.46 | 0.00 | 60 | 1007.3 |
| 20260507044202 | 10 | 314 | 1.6 | 6.4 | 0.00 | 0.46 | 0.00 | 60 | 1007.2 |
| 20260507043703 | 10 | 107 | 0.0 | 8.0 | 0.00 | 0.46 | 0.00 | 60 | 1007.0 |
| 20260507043201 | 10 | 239 | 3.2 | 8.0 | 0.00 | 0.46 | 0.00 | 60 | 1007.0 |
| 20260507042722 | 10 | 234 | 1.6 | 8.0 | 0.00 | 0.46 | 0.00 | 60 | 1007.4 |
| 20260507042156 | 10 | 317 | 0.0 | 4.8 | 0.00 | 0.46 | 0.00 | 60 | 1007.4 |
| 20260507041712 | 10 | 274 | 1.6 | 4.8 | 0.00 | 0.46 | 0.00 | 60 | 1007.4 |
| 20260507041210 | 11 | 266 | 0.0 | 1.6 | 0.00 | 0.46 | 0.00 | 60 | 1007.6 |
| 20260507040732 | 11 | 200 | 0.0 | 3.2 | 0.00 | 0.46 | 0.00 | 60 | 1007.5 |
| 20260507040228 | 11 | 206 | 1.6 | 3.2 | 0.00 | 0.46 | 0.00 | 60 | 1007.5 |
| 20260507040117 | 10 | 254 | 0.0 | 3.2 | 0.00 | 0.46 | 0.46 | 60 | 1007.2 |
| 20260507035725 | 11 | 216 | 0.0 | 6.4 | 0.00 | 0.46 | 0.46 | 59 | 1007.3 |
| 20260507035221 | 11 | 230 | 0.0 | 9.7 | 0.00 | 0.46 | 0.46 | 60 | 1007.3 |
| 20260507034653 | 11 | 248 | 1.6 | 9.7 | 0.03 | 0.46 | 0.46 | 59 | 1007.0 |
| 20260507034152 | 11 | 59 | 1.6 | 6.4 | 0.03 | 0.46 | 0.46 | 59 | 1007.0 |
| 20260507033652 | 11 | 248 | 1.6 | 4.8 | 0.05 | 0.46 | 0.46 | 60 | 1006.9 |
| 20260507033212 | 12 | 359 | 0.0 | 6.4 | 0.05 | 0.46 | 0.46 | 60 | 1006.9 |
| 20260507032711 | 12 | 132 | 1.6 | 6.4 | 0.05 | 0.46 | 0.46 | 60 | 1006.7 |
| 20260507032209 | 12 | 260 | 0.0 | 8.0 | 0.05 | 0.46 | 0.46 | 60 | 1006.7 |
| 20260507031709 | 12 | 302 | 3.2 | 8.0 | 0.05 | 0.46 | 0.46 | 60 | 1006.7 |
| 20260507031621 | 11 | 297 | 1.6 | 8.0 | 0.05 | 0.46 | 0.46 | 60 | 1006.3 |
| 20260507031205 | 12 | 335 | 0.0 | 4.8 | 0.05 | 0.46 | 0.46 | 60 | 1006.5 |
| 20260507030704 | 12 | 285 | 1.6 | 4.8 | 0.05 | 0.46 | 0.46 | 60 | 1006.6 |
| 20260507030200 | 12 | 278 | 0.0 | 8.0 | 0.05 | 0.46 | 0.46 | 61 | 1006.4 |
| 20260507025659 | 12 | 266 | 1.6 | 8.0 | 0.05 | 0.46 | 0.46 | 61 | 1006.4 |
| 20260507025153 | 12 | 300 | 1.6 | 12.9 | 0.05 | 0.46 | 0.46 | 60 | 1006.3 |
| 20260507024653 | 12 | 236 | 3.2 | 12.9 | 0.03 | 0.43 | 0.43 | 60 | 1006.5 |
| 20260507024149 | 13 | 41 | 4.8 | 14.5 | 0.03 | 0.43 | 0.43 | 59 | 1006.6 |
| 20260507023712 | 13 | 214 | 4.8 | 14.5 | 0.00 | 0.41 | 0.41 | 59 | 1006.7 |
| 20260507023230 | 13 | 296 | 3.2 | 11.3 | 0.00 | 0.41 | 0.41 | 59 | 1006.8 |
| 20260507023124 | 13 | 323 | 1.6 | 14.5 | 0.00 | 0.41 | 0.41 | 59 | 1006.5 |
| 20260507022709 | 14 | 299 | 3.2 | 14.5 | 0.00 | 0.41 | 0.41 | 59 | 1006.6 |
| 20260507022205 | 14 | 19 | 4.8 | 14.5 | 0.00 | 0.41 | 0.41 | 61 | 1006.5 |
| 20260507021704 | 14 | 281 | 1.6 | 6.4 | 0.00 | 0.41 | 0.41 | 63 | 1006.3 |
| 20260507021200 | 15 | 218 | 1.6 | 6.4 | 0.00 | 0.41 | 0.41 | 63 | 1006.0 |
| 20260507020651 | 15 | 7 | 1.6 | 6.4 | 0.00 | 0.41 | 0.41 | 64 | 1005.9 |
| 20260507020150 | 15 | 265 | 1.6 | 4.8 | 0.00 | 0.41 | 0.41 | 64 | 1005.9 |
| 20260507015650 | 15 | 233 | 1.6 | 4.8 | 0.00 | 0.41 | 0.41 | 64 | 1006.0 |
| 20260507015148 | 15 | 230 | 0.0 | 8.0 | 0.00 | 0.41 | 0.41 | 64 | 1005.9 |
| 20260507014712 | 15 | 262 | 0.0 | 8.0 | 0.00 | 0.41 | 0.41 | 64 | 1006.0 |
| 20260507014626 | 14 | 262 | 0.0 | 8.0 | 0.00 | 0.41 | 0.41 | 64 | 1005.7 |
| 20260507014228 | 14 | 269 | 0.0 | 3.2 | 0.00 | 0.41 | 0.41 | 64 | 1005.9 |
| 20260507013705 | 14 | 51 | 0.0 | 3.2 | 0.00 | 0.41 | 0.41 | 64 | 1005.7 |
| 20260507013222 | 14 | 145 | 0.0 | 1.6 | 0.00 | 0.41 | 0.41 | 64 | 1005.8 |
| 20260507012702 | 14 | 145 | 0.0 | 1.6 | 0.00 | 0.41 | 0.41 | 64 | 1005.7 |
| 20260507012159 | 14 | 144 | 0.0 | 0.0 | 0.00 | 0.41 | 0.41 | 64 | 1005.7 |
| 20260507011654 | 14 | 144 | 0.0 | 0.0 | 0.00 | 0.41 | 0.41 | 64 | 1005.7 |
| 20260507011151 | 14 | 145 | 0.0 | 1.6 | 0.00 | 0.41 | 0.41 | 64 | 1005.7 |
| 20260507010651 | 14 | 144 | 0.0 | 1.6 | 0.00 | 0.41 | 0.41 | 64 | 1005.8 |
| 20260507010149 | 14 | 144 | 0.0 | 3.2 | 0.00 | 0.41 | 0.41 | 64 | 1005.7 |
| 20260507005650 | 14 | 86 | 0.0 | 3.2 | 0.00 | 0.41 | 0.41 | 64 | 1005.7 |
| 20260507005212 | 14 | 178 | 0.0 | 3.2 | 0.00 | 0.41 | 0.41 | 64 | 1005.7 |
| 20260507004708 | 14 | 188 | 0.0 | 3.2 | 0.00 | 0.41 | 0.41 | 64 | 1005.6 |
| 20260507004622 | 14 | 188 | 0.0 | 3.2 | 0.00 | 0.41 | 0.41 | 64 | 1005.2 |
| 20260507004204 | 14 | 272 | 0.0 | 8.0 | 0.00 | 0.41 | 0.41 | 64 | 1005.6 |
| 20260507003704 | 14 | 304 | 0.0 | 8.0 | 0.00 | 0.41 | 0.41 | 64 | 1005.5 |
| 20260507003201 | 14 | 104 | 0.0 | 1.6 | 0.00 | 0.41 | 0.41 | 64 | 1005.4 |
| 20260507002713 | 14 | 133 | 0.0 | 6.4 | 0.00 | 0.41 | 0.41 | 64 | 1005.2 |
| 20260507002151 | 14 | 126 | 0.0 | 6.4 | 0.00 | 0.41 | 0.41 | 64 | 1005.1 |
| 20260507001713 | 14 | 116 | 0.0 | 3.2 | 0.00 | 0.41 | 0.41 | 64 | 1005.1 |
| 20260507001210 | 14 | 118 | 0.0 | 3.2 | 0.00 | 0.41 | 0.41 | 64 | 1005.2 |
| 20260507000752 | 14 | 141 | 0.0 | 3.2 | 0.00 | 0.41 | 0.41 | 64 | 1005.4 |
| 20260507000205 | 14 | 299 | 0.0 | 4.8 | 0.00 | 0.41 | 0.41 | 64 | 1005.3 |
| 20260507000118 | 14 | 299 | 0.0 | 4.8 | 0.00 | 0.41 | 0.41 | 63 | 1004.9 |
| 20260506235704 | 14 | 84 | 1.6 | 4.8 | 0.00 | 0.41 | 0.41 | 64 | 1005.3 |
| 20260506235219 | 14 | 113 | 0.0 | 8.0 | 0.00 | 0.41 | 0.41 | 63 | 1005.2 |
| 20260506234654 | 15 | 240 | 1.6 | 8.0 | 0.03 | 0.41 | 0.41 | 63 | 1005.3 |
| 20260506234152 | 15 | 137 | 0.0 | 4.8 | 0.03 | 0.41 | 0.41 | 63 | 1005.2 |
| 20260506233653 | 15 | 243 | 0.0 | 4.8 | 0.03 | 0.41 | 0.41 | 63 | 1005.2 |
| 20260506233152 | 15 | 252 | 1.6 | 4.8 | 0.03 | 0.41 | 0.41 | 63 | 1005.1 |
| 20260506232652 | 15 | 239 | 0.0 | 3.2 | 0.03 | 0.41 | 0.41 | 63 | 1005.2 |
| 20260506232149 | 15 | 137 | 0.0 | 4.8 | 0.03 | 0.41 | 0.41 | 63 | 1005.0 |
| 20260506231649 | 15 | 135 | 0.0 | 4.8 | 0.03 | 0.41 | 0.41 | 63 | 1004.8 |
| 20260506231209 | 15 | 231 | 0.0 | 6.4 | 0.03 | 0.41 | 0.41 | 63 | 1004.9 |
| 20260506230708 | 15 | 131 | 0.0 | 9.7 | 0.03 | 0.41 | 0.41 | 63 | 1004.9 |
| 20260506230225 | 15 | 25 | 0.0 | 9.7 | 0.03 | 0.41 | 0.41 | 63 | 1004.9 |
| 20260506230117 | 14 | 162 | 0.0 | 9.7 | 0.03 | 0.41 | 0.41 | 63 | 1004.7 |
| 20260506225659 | 15 | 110 | 0.0 | 6.4 | 0.03 | 0.41 | 0.41 | 63 | 1005.0 |
| 20260506225214 | 15 | 27 | 0.0 | 1.6 | 0.03 | 0.41 | 0.41 | 63 | 1005.2 |
| 20260506224654 | 15 | 117 | 0.0 | 1.6 | 0.00 | 0.38 | 0.38 | 63 | 1005.2 |
| 20260506224150 | 15 | 115 | 0.0 | 6.4 | 0.00 | 0.38 | 0.38 | 63 | 1005.2 |
| 20260506223651 | 15 | 134 | 1.6 | 6.4 | 0.00 | 0.38 | 0.38 | 63 | 1005.3 |
| 20260506223211 | 15 | 262 | 0.0 | 6.4 | 0.00 | 0.38 | 0.38 | 63 | 1005.2 |
| 20260506223128 | 14 | 262 | 0.0 | 6.4 | 0.00 | 0.38 | 0.38 | 63 | 1004.8 |
| 20260506222647 | 15 | 155 | 0.0 | 6.4 | 0.00 | 0.38 | 0.38 | 63 | 1005.2 |
| 20260506222209 | 15 | 114 | 0.0 | 3.2 | 0.00 | 0.38 | 0.38 | 62 | 1005.2 |
| 20260506221709 | 15 | 193 | 0.0 | 4.8 | 0.00 | 0.38 | 0.38 | 62 | 1005.3 |
| 20260506221624 | 14 | 214 | 0.0 | 4.8 | 0.00 | 0.38 | 0.38 | 62 | 1004.8 |
| 20260506221206 | 15 | 120 | 1.6 | 6.4 | 0.03 | 0.38 | 0.38 | 62 | 1005.3 |
| 20260506220705 | 15 | 303 | 1.6 | 8.0 | 0.03 | 0.38 | 0.38 | 62 | 1005.4 |
| 20260506215711 | 15 | 101 | 0.0 | 4.8 | 0.05 | 0.38 | 0.38 | 62 | 1005.3 |
| 20260506215227 | 15 | 86 | 1.6 | 6.4 | 0.05 | 0.38 | 0.38 | 62 | 1005.4 |
| 20260506214719 | 15 | 259 | 1.6 | 11.3 | 0.05 | 0.38 | 0.38 | 62 | 1005.4 |
| 20260506214153 | 15 | 127 | 1.6 | 11.3 | 0.05 | 0.38 | 0.38 | 62 | 1005.4 |
| 20260506213658 | 15 | 175 | 1.6 | 9.7 | 0.08 | 0.38 | 0.38 | 62 | 1005.4 |
| 20260506213158 | 15 | 127 | 1.6 | 3.2 | 0.08 | 0.38 | 0.38 | 62 | 1005.5 |
| 20260506212659 | 15 | 112 | 1.6 | 3.2 | 0.10 | 0.38 | 0.38 | 62 | 1005.5 |
| 20260506212213 | 15 | 243 | 0.0 | 6.4 | 0.13 | 0.38 | 0.38 | 61 | 1005.5 |
| 20260506211733 | 15 | 179 | 1.6 | 6.4 | 0.13 | 0.38 | 0.38 | 61 | 1005.5 |
| 20260506211628 | 15 | 236 | 0.0 | 6.4 | 0.15 | 0.38 | 0.38 | 61 | 1005.0 |
| 20260506211230 | 15 | 252 | 1.6 | 4.8 | 0.13 | 0.36 | 0.36 | 61 | 1005.6 |
| 20260506210707 | 15 | 96 | 1.6 | 9.7 | 0.13 | 0.36 | 0.36 | 61 | 1005.6 |
| 20260506210243 | 15 | 129 | 1.6 | 9.7 | 0.13 | 0.36 | 0.36 | 61 | 1005.6 |
| 20260506205658 | 15 | 153 | 1.6 | 8.0 | 0.10 | 0.33 | 0.33 | 60 | 1005.6 |
| 20260506205157 | 15 | 177 | 1.6 | 12.9 | 0.13 | 0.33 | 0.33 | 60 | 1005.7 |
| 20260506204654 | 15 | 120 | 1.6 | 6.4 | 0.13 | 0.33 | 0.33 | 60 | 1005.7 |
| 20260506203653 | 16 | 224 | 1.6 | 8.0 | 0.13 | 0.30 | 0.30 | 59 | 1005.8 |
| 20260506203147 | 16 | 251 | 1.6 | 3.2 | 0.13 | 0.30 | 0.30 | 59 | 1005.8 |
| 20260506202712 | 16 | 231 | 1.6 | 4.8 | 0.10 | 0.28 | 0.28 | 58 | 1005.8 |
| 20260506202208 | 16 | 306 | 1.6 | 4.8 | 0.08 | 0.25 | 0.25 | 57 | 1005.9 |
| 20260506201706 | 16 | 124 | 1.6 | 4.8 | 0.05 | 0.23 | 0.25 | 57 | 1005.9 |
| 20260506201620 | 16 | 122 | 1.6 | 4.8 | 0.05 | 0.23 | 0.23 | 57 | 1005.4 |
| 20260506201205 | 16 | 288 | 1.6 | 4.8 | 0.05 | 0.23 | 0.23 | 56 | 1005.9 |
| 20260506200725 | 16 | 125 | 0.0 | 4.8 | 0.05 | 0.23 | 0.23 | 56 | 1005.9 |
| 20260506200202 | 16 | 144 | 0.0 | 6.4 | 0.05 | 0.23 | 0.23 | 55 | 1006.0 |
| 20260506195723 | 16 | 105 | 1.6 | 6.4 | 0.05 | 0.23 | 0.23 | 55 | 1006.0 |
| 20260506195200 | 16 | 101 | 0.0 | 6.4 | 0.05 | 0.20 | 0.20 | 55 | 1006.1 |
| 20260506194702 | 16 | 140 | 1.6 | 6.4 | 0.05 | 0.20 | 0.20 | 55 | 1006.2 |
| 20260506194153 | 16 | 92 | 0.0 | 6.4 | 0.03 | 0.18 | 0.18 | 55 | 1006.2 |
| 20260506193658 | 16 | 128 | 1.6 | 6.4 | 0.03 | 0.18 | 0.18 | 55 | 1006.3 |
| 20260506193157 | 16 | 217 | 3.2 | 9.7 | 0.03 | 0.18 | 0.18 | 55 | 1006.4 |
| 20260506192657 | 16 | 231 | 1.6 | 9.7 | 0.03 | 0.18 | 0.18 | 55 | 1006.4 |
| 20260506192213 | 16 | 144 | 0.0 | 11.3 | 0.05 | 0.18 | 0.18 | 55 | 1006.3 |
| 20260506191713 | 16 | 255 | 1.6 | 11.3 | 0.05 | 0.18 | 0.18 | 55 | 1006.1 |
| 20260506191150 | 16 | 231 | 1.6 | 6.4 | 0.08 | 0.18 | 0.18 | 56 | 1006.1 |
| 20260506190653 | 16 | 117 | 0.0 | 1.6 | 0.08 | 0.18 | 0.18 | 56 | 1006.0 |
| 20260506190152 | 16 | 117 | 0.0 | 3.2 | 0.10 | 0.18 | 0.18 | 56 | 1005.9 |
| 20260506185652 | 16 | 25 | 1.6 | 4.8 | 0.10 | 0.18 | 0.18 | 56 | 1006.0 |
| 20260506185149 | 16 | 118 | 1.6 | 8.0 | 0.10 | 0.15 | 0.15 | 56 | 1006.3 |
| 20260506184707 | 16 | 98 | 1.6 | 8.0 | 0.13 | 0.15 | 0.15 | 56 | 1006.4 |
| 20260506184627 | 16 | 76 | 0.0 | 4.8 | 0.13 | 0.15 | 0.15 | 56 | 1005.9 |
| 20260506184203 | 16 | 142 | 0.0 | 4.8 | 0.15 | 0.15 | 0.15 | 57 | 1006.5 |
| 20260506183702 | 16 | 115 | 0.0 | 1.6 | 0.15 | 0.15 | 0.15 | 57 | 1006.5 |
| 20260506183221 | 16 | 67 | 0.0 | 4.8 | 0.15 | 0.15 | 0.15 | 58 | 1006.5 |
| 20260506182701 | 16 | 40 | 1.6 | 4.8 | 0.15 | 0.15 | 0.15 | 59 | 1006.7 |
| 20260506182159 | 16 | 150 | 0.0 | 6.4 | 0.13 | 0.13 | 0.13 | 63 | 1006.9 |
| 20260506181659 | 16 | 147 | 1.6 | 8.0 | 0.13 | 0.13 | 0.13 | 63 | 1006.9 |
| 20260506181151 | 16 | 164 | 0.0 | 8.0 | 0.10 | 0.10 | 0.10 | 64 | 1007.0 |
| 20260506180650 | 16 | 339 | 1.6 | 8.0 | 0.10 | 0.10 | 0.10 | 64 | 1007.2 |
| 20260506180210 | 17 | 238 | 1.6 | 8.0 | 0.08 | 0.08 | 0.08 | 64 | 1007.3 |
| 20260506180122 | 16 | 238 | 0.0 | 8.0 | 0.08 | 0.08 | 0.08 | 64 | 1006.8 |
| 20260506175704 | 17 | 314 | 1.6 | 8.0 | 0.05 | 0.05 | 0.05 | 64 | 1007.2 |
| 20260506175200 | 17 | 154 | 1.6 | 9.7 | 0.05 | 0.05 | 0.05 | 63 | 1007.4 |
| 20260506174659 | 18 | 303 | 1.6 | 17.7 | 0.03 | 0.03 | 0.03 | 60 | 1007.6 |
| 20260506174153 | 18 | 262 | 4.8 | 16.1 | 0.00 | 0.00 | 0.00 | 58 | 1007.6 |
| 20260506173657 | 18 | 153 | 8.0 | 16.1 | 0.00 | 0.00 | 0.00 | 55 | 1007.6 |
| 20260506173150 | 19 | 65 | 3.2 | 16.1 | 0.00 | 0.00 | 0.00 | 53 | 1007.4 |
| 20260506172651 | 20 | 98 | 4.8 | 14.5 | 0.00 | 0.00 | 0.00 | 52 | 1007.4 |
| 20260506172212 | 20 | 241 | 4.8 | 17.7 | 0.00 | 0.00 | 0.00 | 50 | 1007.2 |
| 20260506171729 | 20 | 191 | 6.4 | 17.7 | 0.00 | 0.00 | 0.00 | 49 | 1007.2 |
| 20260506171620 | 20 | 279 | 3.2 | 14.5 | 0.00 | 0.00 | 0.00 | 49 | 1006.6 |
| 20260506171201 | 20 | 110 | 4.8 | 19.3 | 0.00 | 0.00 | 0.00 | 48 | 1007.1 |
| 20260506170702 | 20 | 27 | 6.4 | 25.7 | 0.00 | 0.00 | 0.00 | 48 | 1007.1 |
| 20260506170152 | 20 | 272 | 4.8 | 25.7 | 0.00 | 0.00 | 0.00 | 48 | 1007.2 |
| 20260506165652 | 21 | 233 | 6.4 | 25.7 | 0.00 | 0.00 | 0.00 | 47 | 1007.3 |
| 20260506165213 | 21 | 94 | 4.8 | 20.9 | 0.00 | 0.00 | 0.00 | 47 | 1007.2 |
| 20260506164648 | 21 | 311 | 6.4 | 17.7 | 0.00 | 0.00 | 0.00 | 47 | 1007.4 |
| 20260506164147 | 21 | 185 | 4.8 | 17.7 | 0.00 | 0.00 | 0.00 | 47 | 1007.4 |
| 20260506163649 | 21 | 139 | 6.4 | 22.5 | 0.00 | 0.00 | 0.00 | 47 | 1007.4 |
| 20260506163231 | 21 | 268 | 8.0 | 22.5 | 0.00 | 0.00 | 0.00 | 46 | 1007.4 |
| 20260506163125 | 21 | 222 | 9.7 | 22.5 | 0.00 | 0.00 | 0.00 | 46 | 1006.9 |
| 20260506162646 | 21 | 138 | 1.6 | 6.4 | 0.00 | 0.00 | 0.00 | 47 | 1007.5 |
| 20260506161658 | 21 | 129 | 3.2 | 14.5 | 0.00 | 0.00 | 0.00 | 47 | 1007.6 |
| 20260506161151 | 21 | 121 | 4.8 | 17.7 | 0.00 | 0.00 | 0.00 | 47 | 1007.8 |
| 20260506160656 | 21 | 281 | 3.2 | 17.7 | 0.00 | 0.00 | 0.00 | 47 | 1007.7 |
| 20260506160210 | 21 | 143 | 3.2 | 9.7 | 0.00 | 0.00 | 0.00 | 47 | 1007.7 |
| 20260506160128 | 21 | 276 | 1.6 | 9.7 | 0.00 | 0.00 | 0.00 | 47 | 1007.1 |
| 20260506155708 | 21 | 122 | 4.8 | 11.3 | 0.00 | 0.00 | 0.00 | 47 | 1007.7 |
| 20260506155225 | 21 | 285 | 4.8 | 12.9 | 0.00 | 0.00 | 0.00 | 48 | 1007.9 |
| 20260506154704 | 21 | 142 | 3.2 | 12.9 | 0.00 | 0.00 | 0.00 | 49 | 1008.0 |
| 20260506154200 | 21 | 274 | 4.8 | 14.5 | 0.00 | 0.00 | 0.00 | 48 | 1008.1 |
| 20260506153701 | 21 | 138 | 4.8 | 14.5 | 0.00 | 0.00 | 0.00 | 49 | 1008.2 |
| 20260506153158 | 20 | 196 | 3.2 | 11.3 | 0.00 | 0.00 | 0.00 | 50 | 1008.1 |
| 20260506152701 | 20 | 129 | 3.2 | 6.4 | 0.00 | 0.00 | 0.00 | 51 | 1008.1 |
| 20260506152159 | 20 | 148 | 3.2 | 6.4 | 0.00 | 0.00 | 0.00 | 51 | 1008.3 |
| 20260506151720 | 20 | 127 | 1.6 | 6.4 | 0.00 | 0.00 | 0.00 | 51 | 1008.5 |
| 20260506151210 | 20 | 98 | 3.2 | 6.4 | 0.00 | 0.00 | 0.00 | 51 | 1008.5 |
| 20260506150651 | 20 | 149 | 1.6 | 8.0 | 0.00 | 0.00 | 0.00 | 51 | 1008.4 |
| 20260506150208 | 20 | 192 | 3.2 | 8.0 | 0.00 | 0.00 | 0.00 | 51 | 1008.6 |
| 20260506145648 | 20 | 279 | 3.2 | 16.1 | 0.00 | 0.00 | 0.00 | 50 | 1008.7 |
| 20260506145208 | 20 | 117 | 3.2 | 16.1 | 0.00 | 0.00 | 0.00 | 51 | 1008.4 |
| 20260506144708 | 20 | 308 | 3.2 | 9.7 | 0.00 | 0.00 | 0.00 | 51 | 1008.3 |
| 20260506144622 | 20 | 70 | 3.2 | 9.7 | 0.00 | 0.00 | 0.00 | 52 | 1007.8 |
| 20260506144202 | 20 | 219 | 4.8 | 9.7 | 0.00 | 0.00 | 0.00 | 51 | 1008.5 |
| 20260506143702 | 20 | 231 | 3.2 | 12.9 | 0.00 | 0.00 | 0.00 | 52 | 1008.6 |
| 20260506143219 | 20 | 250 | 4.8 | 17.7 | 0.00 | 0.00 | 0.00 | 52 | 1008.6 |
| 20260506142652 | 20 | 223 | 6.4 | 17.7 | 0.00 | 0.00 | 0.00 | 51 | 1008.6 |
| 20260506142150 | 20 | 243 | 4.8 | 11.3 | 0.00 | 0.00 | 0.00 | 53 | 1008.4 |
| 20260506141651 | 20 | 126 | 1.6 | 11.3 | 0.00 | 0.00 | 0.00 | 53 | 1008.4 |
| 20260506141149 | 20 | 279 | 3.2 | 16.1 | 0.00 | 0.00 | 0.00 | 53 | 1008.3 |
| 20260506140650 | 20 | 257 | 1.6 | 16.1 | 0.00 | 0.00 | 0.00 | 53 | 1008.5 |
| 20260506140149 | 20 | 236 | 1.6 | 6.4 | 0.00 | 0.00 | 0.00 | 53 | 1008.3 |
| 20260506135649 | 20 | 233 | 1.6 | 6.4 | 0.00 | 0.00 | 0.00 | 53 | 1008.1 |
| 20260506135207 | 19 | 312 | 1.6 | 8.0 | 0.00 | 0.00 | 0.00 | 54 | 1008.2 |
| 20260506134728 | 19 | 248 | 1.6 | 16.1 | 0.00 | 0.00 | 0.00 | 55 | 1008.2 |
| 20260506134621 | 18 | 248 | 1.6 | 16.1 | 0.00 | 0.00 | 0.00 | 55 | 1007.7 |
| 20260506134203 | 19 | 216 | 1.6 | 16.1 | 0.00 | 0.00 | 0.00 | 54 | 1008.3 |
| 20260506133700 | 18 | 126 | 1.6 | 4.8 | 0.00 | 0.00 | 0.00 | 55 | 1008.4 |
| 20260506133231 | 18 | 105 | 1.6 | 6.4 | 0.00 | 0.00 | 0.00 | 56 | 1008.5 |
| 20260506133129 | 18 | 127 | 0.0 | 6.4 | 0.00 | 0.00 | 0.00 | 56 | 1008.0 |
| 20260506132649 | 18 | 203 | 1.6 | 8.0 | 0.00 | 0.00 | 0.00 | 56 | 1008.6 |
| 20260506132230 | 18 | 124 | 3.2 | 8.0 | 0.00 | 0.00 | 0.00 | 56 | 1008.5 |
| 20260506131706 | 18 | 128 | 1.6 | 3.2 | 0.00 | 0.00 | 0.00 | 57 | 1008.5 |
| 20260506131621 | 18 | 129 | 0.0 | 3.2 | 0.00 | 0.00 | 0.00 | 57 | 1008.1 |
| 20260506131223 | 18 | 233 | 0.0 | 3.2 | 0.00 | 0.00 | 0.00 | 57 | 1008.7 |
| 20260506130702 | 18 | 131 | 0.0 | 3.2 | 0.00 | 0.00 | 0.00 | 58 | 1008.8 |
| 20260506130201 | 18 | 113 | 0.0 | 1.6 | 0.00 | 0.00 | 0.00 | 58 | 1008.8 |
| 20260506125700 | 18 | 113 | 0.0 | 1.6 | 0.00 | 0.00 | 0.00 | 58 | 1008.8 |
| 20260506125235 | 18 | 113 | 0.0 | 1.6 | 0.00 | 0.00 | 0.00 | 58 | 1008.7 |
| 20260506124648 | 18 | 113 | 0.0 | 1.6 | 0.00 | 0.00 | 0.00 | 58 | 1008.8 |
| 20260506124146 | 17 | 109 | 0.0 | 1.6 | 0.00 | 0.00 | 0.00 | 58 | 1008.9 |
| 20260506123732 | 17 | 134 | 0.0 | 11.3 | 0.00 | 0.00 | 0.00 | 58 | 1008.9 |
| 20260506123206 | 17 | 131 | 3.2 | 11.3 | 0.00 | 0.00 | 0.00 | 58 | 1009.0 |
| 20260506123121 | 17 | 86 | 1.6 | 11.3 | 0.00 | 0.00 | 0.00 | 59 | 1008.5 |
| 20260506122707 | 17 | 150 | 0.0 | 3.2 | 0.00 | 0.00 | 0.00 | 59 | 1008.8 |
| 20260506122204 | 17 | 120 | 0.0 | 1.6 | 0.00 | 0.00 | 0.00 | 60 | 1008.9 |
| 20260506121723 | 16 | 120 | 0.0 | 3.2 | 0.00 | 0.00 | 0.00 | 60 | 1008.7 |
| 20260506121159 | 16 | 117 | 0.0 | 9.7 | 0.00 | 0.00 | 0.00 | 60 | 1008.8 |
| 20260506120652 | 16 | 148 | 1.6 | 9.7 | 0.00 | 0.00 | 0.00 | 60 | 1008.9 |
| 20260506120149 | 16 | 193 | 1.6 | 6.4 | 0.00 | 0.00 | 0.00 | 60 | 1009.1 |
| 20260506115647 | 16 | 113 | 1.6 | 11.3 | 0.00 | 0.00 | 0.00 | 61 | 1009.2 |
| 20260506115146 | 16 | 246 | 0.0 | 1.6 | 0.00 | 0.00 | 0.00 | 61 | 1009.2 |
| 20260506114647 | 16 | 132 | 0.0 | 6.4 | 0.00 | 0.00 | 0.00 | 62 | 1009.1 |
| 20260506114146 | 15 | 136 | 1.6 | 6.4 | 0.00 | 0.00 | 0.00 | 62 | 1009.2 |
| 20260506113710 | 15 | 153 | 0.0 | 6.4 | 0.00 | 0.00 | 0.00 | 62 | 1009.3 |
| 20260506113121 | 15 | 126 | 0.0 | 6.4 | 0.00 | 0.00 | 0.00 | 62 | 1008.8 |
| 20260506112705 | 15 | 122 | 0.0 | 1.6 | 0.00 | 0.00 | 0.00 | 62 | 1009.4 |
| 20260506112201 | 15 | 260 | 0.0 | 3.2 | 0.00 | 0.00 | 0.00 | 62 | 1009.3 |
| 20260506111700 | 15 | 146 | 0.0 | 3.2 | 0.00 | 0.00 | 0.00 | 62 | 1009.4 |
| 20260506111159 | 15 | 153 | 0.0 | 0.0 | 0.00 | 0.00 | 0.00 | 63 | 1009.4 |
| 20260506110714 | 15 | 153 | 0.0 | 3.2 | 0.00 | 0.00 | 0.00 | 63 | 1009.5 |
| 20260506110150 | 15 | 150 | 0.0 | 3.2 | 0.00 | 0.00 | 0.00 | 63 | 1009.3 |
| 20260506105651 | 15 | 165 | 0.0 | 0.0 | 0.00 | 0.00 | 0.00 | 63 | 1009.4 |
| 20260506105149 | 15 | 165 | 0.0 | 1.6 | 0.00 | 0.00 | 0.00 | 63 | 1009.3 |
| 20260506104710 | 14 | 198 | 0.0 | 1.6 | 0.00 | 0.00 | 0.00 | 63 | 1009.3 |
| 20260506104230 | 14 | 144 | 0.0 | 1.6 | 0.00 | 0.00 | 0.00 | 63 | 1009.4 |
| 20260506103646 | 14 | 145 | 0.0 | 1.6 | 0.00 | 0.00 | 0.00 | 63 | 1009.4 |
| 20260506103206 | 14 | 154 | 0.0 | 0.0 | 0.00 | 0.00 | 0.00 | 63 | 1009.3 |
| 20260506103124 | 14 | 154 | 0.0 | 0.0 | 0.00 | 0.00 | 0.00 | 63 | 1009.0 |
| 20260506102706 | 14 | 154 | 0.0 | 0.0 | 0.00 | 0.00 | 0.00 | 63 | 1009.3 |
| 20260506102158 | 14 | 155 | 0.0 | 0.0 | 0.00 | 0.00 | 0.00 | 63 | 1009.4 |
| 20260506101659 | 14 | 152 | 0.0 | 1.6 | 0.00 | 0.00 | 0.00 | 62 | 1009.2 |
| 20260506101152 | 15 | 152 | 0.0 | 3.2 | 0.00 | 0.00 | 0.00 | 62 | 1009.2 |
| 20260506100657 | 14 | 153 | 0.0 | 3.2 | 0.00 | 0.00 | 0.00 | 62 | 1009.1 |
| 20260506100151 | 14 | 145 | 0.0 | 1.6 | 0.00 | 0.00 | 0.00 | 62 | 1009.2 |
| 20260506095656 | 14 | 145 | 0.0 | 1.6 | 0.00 | 0.00 | 0.00 | 62 | 1009.3 |
| 20260506095151 | 14 | 158 | 0.0 | 1.6 | 0.00 | 0.00 | 0.00 | 62 | 1009.2 |
| 20260506094651 | 14 | 163 | 0.0 | 1.6 | 0.00 | 0.00 | 0.00 | 62 | 1009.3 |
| 20260506094150 | 15 | 157 | 0.0 | 3.2 | 0.00 | 0.00 | 0.00 | 62 | 1009.2 |
| 20260506093649 | 15 | 217 | 0.0 | 3.2 | 0.00 | 0.00 | 0.00 | 62 | 1009.1 |
| 20260506093210 | 15 | 165 | 0.0 | 4.8 | 0.00 | 0.00 | 0.00 | 61 | 1009.2 |
| 20260506093120 | 14 | 165 | 0.0 | 4.8 | 0.00 | 0.00 | 0.00 | 61 | 1008.7 |
| 20260506092707 | 15 | 131 | 1.6 | 4.8 | 0.00 | 0.00 | 0.00 | 61 | 1009.1 |
| 20260506092159 | 15 | 165 | 0.0 | 4.8 | 0.00 | 0.00 | 0.00 | 61 | 1009.1 |
| 20260506091659 | 15 | 113 | 1.6 | 4.8 | 0.00 | 0.00 | 0.00 | 61 | 1009.0 |
| 20260506091156 | 15 | 94 | 0.0 | 6.4 | 0.00 | 0.00 | 0.00 | 61 | 1009.3 |
| 20260506090734 | 15 | 142 | 1.6 | 6.4 | 0.00 | 0.00 | 0.00 | 61 | 1009.2 |
| 20260506090146 | 14 | 238 | 1.6 | 3.2 | 0.00 | 0.00 | 0.00 | 62 | 1009.1 |
| 20260506085709 | 14 | 200 | 0.0 | 6.4 | 0.00 | 0.00 | 0.00 | 62 | 1009.1 |
| 20260506085226 | 14 | 175 | 0.0 | 6.4 | 0.00 | 0.00 | 0.00 | 62 | 1009.1 |
| 20260506084706 | 13 | 236 | 0.0 | 0.0 | 0.00 | 0.00 | 0.00 | 62 | 1009.4 |
| 20260506084618 | 13 | 238 | 0.0 | 0.0 | 0.00 | 0.00 | 0.00 | 62 | 1008.8 |
| 20260506083658 | 14 | 238 | 0.0 | 1.6 | 0.00 | 0.00 | 0.00 | 61 | 1009.3 |
| 20260506083153 | 14 | 238 | 0.0 | 1.6 | 0.00 | 0.00 | 0.00 | 61 | 1009.3 |
| 20260506082657 | 14 | 238 | 0.0 | 0.0 | 0.00 | 0.00 | 0.00 | 61 | 1009.4 |
| 20260506082150 | 14 | 238 | 0.0 | 0.0 | 0.00 | 0.00 | 0.00 | 61 | 1009.3 |
| 20260506081651 | 14 | 238 | 0.0 | 1.6 | 0.00 | 0.00 | 0.00 | 60 | 1009.3 |
| 20260506081149 | 14 | 238 | 0.0 | 1.6 | 0.00 | 0.00 | 0.00 | 60 | 1009.2 |
| 20260506080649 | 15 | 238 | 0.0 | 0.0 | 0.00 | 0.00 | 0.00 | 59 | 1009.1 |
| 20260506080147 | 15 | 238 | 0.0 | 1.6 | 0.00 | 0.00 | 0.00 | 59 | 1009.2 |
| 20260506073151 | 15 | 258 | 0.0 | 1.6 | 0.00 | 0.00 | 0.00 | 57 | 1009.1 |
| 20260506072649 | 15 | 258 | 0.0 | 1.6 | 0.00 | 0.00 | 0.00 | 56 | 1009.2 |
| 20260506072149 | 15 | 245 | 0.0 | 1.6 | 0.00 | 0.00 | 0.00 | 56 | 1009.1 |
| 20260506071649 | 16 | 245 | 0.0 | 1.6 | 0.00 | 0.00 | 0.00 | 56 | 1009.1 |
| 20260506071147 | 16 | 245 | 0.0 | 1.6 | 0.00 | 0.00 | 0.00 | 56 | 1009.0 |
| 20260506070648 | 16 | 205 | 0.0 | 4.8 | 0.00 | 0.00 | 0.00 | 56 | 1008.9 |